Regional Weather Roundup
Issued by NWS Green Bay, WI

Home | Current Version | Previous Version | Graphics & Text | Print | Product List | Glossary Off
Versions: 1 2 3 4 5 6 7 8 9 10 11 12 13 14 15 16 17 18 19 20 21 22 23 24 25 26 27 28 29 30 31 32 33 34 35 36 37 38 39 40 41 42 43 44 45 46 47 48 49 50

000
ASUS43 KGRB 021400
RWRGRB

NORTH-CENTRAL AND NORTHEAST WISCONSIN REGIONAL WEATHER ROUNDUP
NATIONAL WEATHER SERVICE GREEN BAY WI
900 AM CDT TUE JUN 02 2015

WIZ005-009-010>012-018-019-021500-
NORTH CENTRAL WISCONSIN

CITY           SKY/WX    TMP DP  RH WIND       PRES   REMARKS
IRONWOOD       PTSUNNY   57  37  47 SE3       30.10F
MANITOWISH WTR NOT AVBL
ARBOR VITAE    NOT AVBL
EAGLE RIVER    NOT AVBL
LAND O LAKES   NOT AVBL
RHINELANDER    SUNNY     56  38  50 S8        30.19F
PHILLIPS       NOT AVBL
ANTIGO         NOT AVBL
TOMAHAWK       NOT AVBL
MERRILL        NOT AVBL
$$

WIZ013-073-021500-
NORTHEAST WISCONSIN

CITY           SKY/WX    TMP DP  RH WIND       PRES   REMARKS
IRON MOUNTAIN  MOSUNNY   57  38  48 S5        30.20S
MARINETTE      SUNNY     59  37  44 CALM      30.21F
$$

WIZ017-030-035>037-045-021500-
CENTRAL WISCONSIN

CITY           SKY/WX    TMP DP  RH WIND       PRES   REMARKS
MEDFORD        NOT AVBL
WAUSAU         SUNNY     57  39  51 S9        30.18F
MOSINEE        SUNNY     55  41  58 S9        30.20F
MARSHFIELD     SUNNY     56  40  55 S12       30.18F
WISC RAPIDS    SUNNY     60  36  40 S9        30.21S
STEVENS POINT  NOT AVBL
WAUPACA        NOT AVBL
SHAWANO        NOT AVBL
CLINTONVILLE   NOT AVBL
$$

WIZ038-039-048-051-021500-
FOX VALLEY

CITY           SKY/WX    TMP DP  RH WIND       PRES   REMARKS
NWS GREEN BAY  SUNNY     59  41  51 CALM      30.22S
APPLETON       MOSUNNY   57  45  62 VRB3      30.22S
OSHKOSH        SUNNY     60  42  51 CALM      30.21S
FOND DU LAC    SUNNY     60  45  57 S7        30.21S
$$

WIZ022-050-052-021500-
EAST CENTRAL WISCONSIN

CITY           SKY/WX    TMP DP  RH WIND       PRES   REMARKS
STURGEON BAY   SUNNY     57  39  51 CALM      30.24S
MANITOWOC      NOT AVBL
SHEBOYGAN      SUNNY     57  43  59 S5        30.23R
$$

LMZ563-521-522-541>543-021500-
LAKESHORE

STATION/POSITION TIME  TEMP    WIND        PRES    VSBY  WAVE
                       AIR SEA DIR/SP/G                  HT/PER
                 (UTC) (F)     (DEG/KT/KT) (MB)    (MI)  (FT/S)
SHEBOYGAN LKSHOR 1300   48     120/  3/  3 1024.0S
KEWAUNEE LKSHORE 1300   49      80/  1/  3 1022.7R
ALGOMA MARINA    1309             CALM       N/A
NORTHPORT PIER   1300   51     130/  8/ 10 1023.4S
N MID LAKE BUOY  1250   40 37  160/  4/  4 1024.6R         0
SISTER BAY LKSHO 1318   64        CALM       N/A
CHAMBERS ISLAND  1300   58     350/  3/  3 1023.4S
MENOMINEE LKSHOR 1300   52      40/  2/  3 1023.9R
$$


USA.gov is the U.S. government's official web portal to all federal, state and local government web resources and services.